FENGYUN 1C DEB, 38155

Orbit data source: Space-Track

FENGYUN 1C DEB, 38155 is space debris in SSO originally from a launch on Mon, 10 May 1999 UTC launched from the Taiyaun Space Center, China (TSC). Fengyun 1C debris stems from the Chinese weather satellite Fengyun-1C, which was intentionally destroyed by a Chinese anti-satellite missile in 2007. This event dramatically increased the amount of space debris, with thousands of trackable fragments posing hazards to satellites and human spaceflight. The Fengyun 1C debris cloud has become a focal point in discussions about space sustainability and the need for international regulations to prevent the creation of new debris.

Loading next visibility...
Identifier
38155, 1999-025ERC
Orbit
SSO
Country
Flag of CNCN / PRC
Related business
Manufacturer
Unknown
Mission
Spacecraft
Bus & Motor
Unknown
Mass
Unknown
Launch date (UTC)
1999-05-10 (27 years ago)
Launch vehicle
Unknown
Launch site
Taiyaun Space Center, China (TSC)
Object type
Payload
Rocket body
Debris
Shape & HBR
Unknown shape, 0.1 m
Radar Cross Section
Small (<0.1 m²)

Expand to show TLE details & history
Last TLE update: 19 hours ago

TLE from 19 hours ago
0 FENGYUN 1C DEB
1 38155U 99025ERC 26145.46616671  .00004908  00000-0  19345-2 0  9997
2 38155  98.4423  48.9604 0097135   9.9133 350.3935 14.26996769661094
Epoch: 2026-05-25T11:11Z
TLE epoch observation values (Epoch: 2026-05-25T11:11:16.803Z)
Latitude
-0.00004°
Longitude
-1.91316°
Altitude
735.961 km
Speed
7.523 km/s
True Right ascension
03h 15m 50s
True Declination
0° 00' 00"
Sunlit
Object was in daylight at epoch
Visualization orbit readout
Latitude
Unknown
Longitude
Unknown
Altitude
Unknown
Speed
Unknown
Apparent Right ascension
Unknown
Apparent Declination
Unknown
Sunlit
N/A
Visualization observer readout
Local Sidereal Time
15:38:41
Azimuth
Unknown
Elevation
Unknown
Doppler factor
Unknown
Orbital elements
Apogee altitude
868.638 km
Perigee altitude
729.209 km
Semi-major axis
7,177.06 km
Eccentricity
0.00971
Inclination
98.4423°
RAAN
48.9604°
Arg. of periapsis
9.9133°
True anomaly
350.2055°
Mean anomaly
350.3935°
Eccentric anomaly
350.29973°
Mean motion
3.56963 °/min
Orbital period
100.85 mins
BSTAR
0.0019345
Loading maneuver chart data...
Computing Atmospheric mass density...
Loading historical data...
Loading historical data...
Loading historical data...
Loading historical data...
Loading historical data...
Loading historical data...
Loading historical data...

Documentation

Showing up to 5 results
|